Regional Weather Roundup
Issued by NWS

Home | Current Version | Previous Version | Text Only | Print | Product List | Glossary On
Versions: 1 2 3 4 5 6 7 8 9 10 11 12 13 14 15 16 17 18 19 20 21 22 23 24 25 26 27 28 29 30 31 32 33 34 35 36 37 38 39 40 41 42 43 44 45 46 47 48 49 50
000
ASUS45 KCYS 031210
RWRWY

WYOMING REGIONAL WEATHER ROUNDUP
NATIONAL WEATHER SERVICE CHEYENNE WY
600 AM MDT TUE AUG 03 2021

NOTE:  "FAIR" INDICATES FEW OR NO CLOUDS BELOW 12,000 FEET
WITH NO SIGNIFICANT WEATHER AND/OR OBSTRUCTIONS TO VISIBILITY.

WYZ001-031300-
...YELLOWSTONE NATIONAL PARK...

CITY           SKY/WX    TMP DP  RH WIND       PRES   REMARKS
LK YELLOWSTONE   N/A     52  52 100 CALM      30.44F
6HR MIN TEMP:  52; 6HR MAX TEMP:  53; 6HR PCP:  0.01;

W YELLOWSTONE  NOT AVBL

$$
WYZ002>013-054>058-071-098>099-031300-
...NORTHERN WYOMING...

CITY           SKY/WX    TMP DP  RH WIND       PRES   REMARKS
JACKSON        CLOUDY    56  55  97 CALM      30.37S
CODY           CLOUDY    64  54  69 NW5       30.24R
GREYBULL       CLOUDY    74  51  44 S5        30.09R
6HR MIN TEMP:  73; 6HR MAX TEMP:  78;

WORLAND        CLOUDY    67  52  58 SW5       30.11R
6HR MIN TEMP:  66; 6HR MAX TEMP:  74;

SHERIDAN       PTCLDY    71  52  50 NW10      30.11R
6HR MIN TEMP:  70; 6HR MAX TEMP:  79;

BUFFALO        PTCLDY    65  48  54 NW9       30.16S
6HR MIN TEMP:  62; 6HR MAX TEMP:  75;

GILLETTE       CLEAR     62  44  51 W8        30.11S
6HR MIN TEMP:  60; 6HR MAX TEMP:  71;

HULETT         CLEAR     59  45  58 SE3       30.13R
NEWCASTLE      CLEAR     66  37  34 CALM      30.11S

$$
WYZ014>020-022>026-101>103-031300-
...CENTRAL WYOMING...

CITY           SKY/WX    TMP DP  RH WIND       PRES   REMARKS
BIG PINEY      PTCLDY    54  47  77 N3        30.37R
6HR MIN TEMP:  50; 6HR MAX TEMP:  62;

PINEDALE       PTCLDY    55  46  71 NW7       30.36S
DUBOIS         CLOUDY    59  46  63 W18G24    30.35R
LANDER         CLOUDY    65  54  67 SW8       30.20R
6HR MIN TEMP:  65; 6HR MAX TEMP:  71; 6HR PCP: TRACE;

RIVERTON       MOCLDY    67  53  61 W6        30.20R
6HR MIN TEMP:  66; 6HR MAX TEMP:  73;

CASPER         PTCLDY    61  53  75 W8        30.18R
6HR MIN TEMP:  60; 6HR MAX TEMP:  66;

DOUGLAS        PTCLDY    56  41  57 W3        30.16S
6HR MIN TEMP:  55; 6HR MAX TEMP:  68;


$$
WYZ021-027>030-104>119-031300-
...SOUTHERN WYOMING...

CITY           SKY/WX    TMP DP  RH WIND       PRES   REMARKS
EVANSTON       CLEAR     51  50  96 W6        30.41R
6HR MIN TEMP:  51; 6HR MAX TEMP:  57;

KEMMERER       PTCLDY    52  48  87 NW6       30.40S
FORT BRIDGER   PTCLDY    55  53  93 W14       30.41R
ROCK SPRINGS   MOCLDY    56  50  80 SW10      30.34R
6HR MIN TEMP:  55; 6HR MAX TEMP:  60;

DIXON          MOCLDY    59  52  76 E13       30.35S
RAWLINS        CLOUDY    60  53  77 S8        30.34R
6HR MIN TEMP:  60; 6HR MAX TEMP:  63;

SARATOGA       LGT RAIN  57  57 100 CALM      30.36R
LARAMIE        CLOUDY    58  51  78 CALM      30.32R
6HR MIN TEMP:  54; 6HR MAX TEMP:  61;

CHEYENNE       MOCLDY    65  52  62 CALM      30.23R
6HR MIN TEMP:  62; 6HR MAX TEMP:  68;

TORRINGTON     CLEAR     58  47  66 E5        30.10R
6HR MIN TEMP:  58; 6HR MAX TEMP:  70;

PINE BLUFFS    PTCLDY    55  48  76 W3        30.19R

$$



USA.gov is the U.S. government's official web portal to all federal, state and local government web resources and services.